Time+03,TemperatureF,Dew PointF,Humidity,Sea Level PressureIn,VisibilityMPH,Wind Direction,Wind SpeedMPH,Gust SpeedMPH,PrecipitationIn,Events,Conditions,WindDirDegrees,DateUTC
12:55 AM,84.7,68.2,57,29.72,6.2,NNW,13.8,-,N/A,,Clear,330,2013-09-25 21:55:00
1:55 AM,84.2,69.6,61,29.72,6.2,NNW,12.7,-,N/A,,Clear,330,2013-09-25 22:55:00
2:55 AM,83.3,70.7,66,29.73,6.2,NNW,11.5,-,N/A,,Clear,340,2013-09-25 23:55:00
3:55 AM,82.6,70.3,66,29.73,6.2,NNW,11.5,-,N/A,,Clear,330,2013-09-26 00:55:00
4:55 AM,83.1,69.6,64,29.74,6.2,NNW,13.8,-,N/A,,Clear,330,2013-09-26 01:55:00
5:55 AM,82.8,69.3,64,29.76,6.2,NW,13.8,-,N/A,,Clear,320,2013-09-26 02:55:00
6:55 AM,85.8,69.3,58,29.78,6.2,NNW,15.0,-,N/A,,Clear,330,2013-09-26 03:55:00
7:55 AM,90.9,64.6,42,29.79,6.2,NNW,23.0,-,N/A,,Clear,340,2013-09-26 04:55:00
8:55 AM,93.9,60.3,32,29.80,6.2,NNW,25.3,-,N/A,,Clear,330,2013-09-26 05:55:00
9:55 AM,95.0,59.7,31,29.80,6.2,NNW,27.6,33.4,N/A,,Clear,330,2013-09-26 06:55:00
10:34 AM,95.0,57.2,28,29.78,-9999.0,NNW,28.8,38.0,N/A,,Haze,330,2013-09-26 07:34:00
10:40 AM,95.0,57.2,28,29.78,2.5,NNW,28.8,38.0,N/A,,Haze,330,2013-09-26 07:40:00
10:43 AM,95.0,57.2,28,29.78,-9999.0,NNW,23.0,-,N/A,,Haze,330,2013-09-26 07:43:00
10:44 AM,95.0,57.2,28,29.78,3.7,NNW,23.0,28.8,N/A,,Haze,330,2013-09-26 07:44:00
10:55 AM,95.5,59.0,29,29.78,3.7,NW,23.0,33.4,N/A,,Haze,320,2013-09-26 07:55:00
11:55 AM,95.5,58.1,29,29.76,5.6,NNW,25.3,34.5,N/A,,Haze,330,2013-09-26 08:55:00
12:55 PM,95.4,57.7,28,29.75,6.2,NW,21.9,33.4,N/A,,Clear,320,2013-09-26 09:55:00
1:55 PM,95.5,50.9,22,29.73,5.6,NW,24.2,32.2,N/A,,Haze,310,2013-09-26 10:55:00
2:23 PM,95.0,51.8,23,29.71,-9999.0,NW,31.1,34.5,N/A,,Haze,310,2013-09-26 11:23:00
2:25 PM,95.0,51.8,23,29.71,3.7,NW,25.3,34.5,N/A,,Haze,320,2013-09-26 11:25:00
2:55 PM,94.3,55.6,27,29.71,3.7,NNW,20.7,-,N/A,,Haze,330,2013-09-26 11:55:00
3:55 PM,92.3,55.6,29,29.72,5.0,NNW,23.0,33.4,N/A,,Haze,330,2013-09-26 12:55:00
4:55 PM,89.6,59.4,36,29.72,6.2,NNW,23.0,-,N/A,,Clear,340,2013-09-26 13:55:00
5:55 PM,87.3,55.0,33,29.73,6.2,NNW,24.2,-,N/A,,Clear,340,2013-09-26 14:55:00
6:55 PM,85.3,53.4,33,29.74,6.2,NNW,20.7,-,N/A,,Clear,340,2013-09-26 15:55:00
7:55 PM,83.3,55.9,39,29.75,6.2,NNW,12.7,-,N/A,,Clear,330,2013-09-26 16:55:00
8:55 PM,81.9,57.7,44,29.75,6.2,NW,10.4,-,N/A,,Clear,320,2013-09-26 17:55:00
9:55 PM,79.3,58.3,48,29.74,6.2,West,6.9,-,N/A,,Clear,280,2013-09-26 18:55:00
10:55 PM,80.2,59.7,49,29.73,6.2,WNW,13.8,-,N/A,,Clear,300,2013-09-26 19:55:00
11:55 PM,80.4,59.9,49,29.72,6.2,WNW,11.5,-,N/A,,Clear,300,2013-09-26 20:55:00